Ardabil, Iran

12:11 AM +0330 on October 20, 2019 (GMT +0330)
Ardabil

Weather History for OITL - August, 2019

Change the Weather History Date:

Saturday, August 3, 2019

  Actual Average (WUND) Record (WUND)
Temperature  
Mean Temperature 68 °F -  
Max Temperature 75 °F - - (-1)
Min Temperature 60 °F - - (-1)
Cooling Degree Days 2    
Growing Degree Days 18 (Base 50)    
Moisture  
Dew Point 54 °F    
Average Humidity 62    
Maximum Humidity 88    
Minimum Humidity 41    
Precipitation  
Precipitation 0.00 in - - ()
Sea Level Pressure  
Sea Level Pressure 29.88 in    
Wind  
Wind Speed 14 mph ()    
Max Wind Speed 31 mph    
Max Gust Speed -    
Visibility 6.1 miles    
Events Fog    
Averages and records for this station are not official NWS values.
T = Trace of Precipitation, MM = Missing Value Source: Averaged Metar Reports

Daily Weather History Graph

Daily Weather History Graph

Search for Another Location

Airport or City:

Astronomy

Aug. 03, 2019 Rise Set
Actual Time 6:19 AM +0430 8:24 PM +0430
Civil Twilight 5:50 AM +0430 8:53 PM +0430
Nautical Twilight 5:14 AM +0430 9:29 PM +0430
Astronomical Twilight 4:35 AM +0430 10:08 PM +0430
Moon 8:43 AM +0430 (8/3) 10:18 PM +0430 (8/3)
Length of Visible Light 15h 03m
Length of Day
14h 04m
Waxing Crescent, 7% of the Moon is Illuminated
Aug 3
Waxing Crescent
Aug 7
First Quarter
Aug 15
Full
Aug 23
Last Quarter
Aug 30
New

Hourly Weather History & Observations

Time (+0430) Temp. Dew Point Humidity Pressure Visibility Wind Dir Wind Speed Gust Speed Precip Events Conditions
12:21 AM 64.4 °F 55.4 °F 73% 29.89 in 6.2 mi East 9.2 mph - N/A   Partly Cloudy
1:21 AM 60.8 °F 53.6 °F 77% 29.89 in 6.2 mi NE 6.9 mph - N/A   Partly Cloudy
2:21 AM 62.6 °F 53.6 °F 72% 29.89 in 6.2 mi East 9.2 mph - N/A   Partly Cloudy
3:21 AM 62.6 °F 53.6 °F 72% 29.89 in 6.2 mi Calm Calm - N/A   Partly Cloudy
4:28 AM 62.6 °F 55.4 °F 77% 29.86 in 6.2 mi Calm Calm - N/A   Mostly Cloudy
5:20 AM 62.6 °F 59.0 °F 88% 29.89 in 6.2 mi East 11.5 mph - N/A Fog Mostly Cloudy
6:20 AM 62.6 °F 55.4 °F 77% 29.89 in 6.2 mi NNW 4.6 mph - N/A   Mostly Cloudy
6:30 AM 62.6 °F 55.4 °F 77% 29.89 in 6.2 mi NNW 4.6 mph - N/A   Mostly Cloudy
7:20 AM 62.6 °F 57.2 °F 82% 29.89 in 6.2 mi NE 6.9 mph - N/A   Mostly Cloudy
8:30 AM 66.2 °F 55.4 °F 68% 29.89 in 6.2 mi NE 6.9 mph - N/A   Mostly Cloudy
9:21 AM 69.8 °F 55.4 °F 60% 29.89 in 6.2 mi East 11.5 mph - N/A   Mostly Cloudy
9:30 AM 69.8 °F 55.4 °F 60% 29.89 in 6.2 mi East 11.5 mph - N/A   Mostly Cloudy
10:21 AM 71.6 °F 51.8 °F 50% 29.89 in 6.2 mi ENE 18.4 mph - N/A   Mostly Cloudy
10:30 AM 71.6 °F 51.8 °F 50% 29.89 in 6.2 mi ENE 18.4 mph - N/A   Mostly Cloudy
11:00 AM 69.8 °F 53.6 °F 56% 29.89 in 6.2 mi ENE 18.4 mph - N/A   Mostly Cloudy
11:21 AM 73.4 °F 50.0 °F 44% 29.89 in 6.2 mi ENE 18.4 mph - N/A   Mostly Cloudy
11:30 AM 73.4 °F 50.0 °F 44% 29.89 in 6.2 mi ENE 18.4 mph - N/A   Mostly Cloudy
12:21 PM 75.2 °F 50.0 °F 41% 29.89 in 6.2 mi ENE 21.9 mph - N/A   Scattered Clouds
12:30 PM 75.2 °F 50.0 °F 41% 29.89 in 6.2 mi ENE 21.9 mph - N/A   Scattered Clouds
1:21 PM 75.2 °F 50.0 °F 41% 29.89 in 6.2 mi ENE 21.9 mph - N/A   Scattered Clouds
1:30 PM 75.2 °F 50.0 °F 41% 29.89 in 6.2 mi ENE 21.9 mph - N/A   Scattered Clouds
2:21 PM 75.2 °F 51.8 °F 44% 29.86 in 6.2 mi East 21.9 mph - N/A   Scattered Clouds
2:30 PM 75.2 °F 51.8 °F 44% 29.86 in 6.2 mi East 21.9 mph - N/A   Scattered Clouds
3:20 PM 73.4 °F 51.8 °F 47% 29.86 in 6.2 mi East 26.5 mph - N/A   Partly Cloudy
3:30 PM 73.4 °F 51.8 °F 47% 29.86 in 6.2 mi East 26.5 mph - N/A   Partly Cloudy
4:20 PM 73.4 °F 51.8 °F 47% 29.86 in 6.2 mi East 26.5 mph - N/A   Partly Cloudy
4:30 PM 73.4 °F 51.8 °F 47% 29.86 in 6.2 mi ENE 19.6 mph - N/A   Partly Cloudy
5:00 PM 73.4 °F 48.2 °F 41% 29.86 in 6.2 mi ENE 21.9 mph - N/A   Partly Cloudy
5:20 PM 71.6 °F 51.8 °F 50% 29.86 in 6.2 mi ENE 28.8 mph - N/A   Partly Cloudy
5:30 PM 71.6 °F 51.8 °F 50% 29.86 in 6.2 mi ENE 28.8 mph - N/A   Partly Cloudy
6:00 PM 69.8 °F 51.8 °F 53% 29.86 in 6.2 mi ENE 24.2 mph - N/A   Partly Cloudy
6:22 PM 68.0 °F 55.4 °F 64% 29.86 in 6.2 mi ENE 31.1 mph - N/A   Partly Cloudy
6:30 PM 68.0 °F 55.4 °F 64% 29.86 in 6.2 mi ENE 31.1 mph - N/A   Partly Cloudy
7:00 PM 66.2 °F 55.4 °F 68% 29.86 in 6.2 mi ENE 28.8 mph - N/A   Partly Cloudy
7:20 PM 64.4 °F 57.2 °F 77% 29.86 in 6.2 mi ENE 24.2 mph - N/A   Partly Cloudy
7:30 PM 64.4 °F 57.2 °F 77% 29.86 in 6.2 mi ENE 24.2 mph - N/A   Partly Cloudy
8:22 PM 62.6 °F 59.0 °F 88% 29.89 in 5.0 mi ENE 24.2 mph - N/A Fog Fog
9:20 PM 62.6 °F 59.0 °F 88% 29.89 in 5.0 mi ENE 26.5 mph - N/A Fog Fog
10:20 PM 60.8 °F 57.2 °F 88% 29.92 in 5.0 mi ENE 19.6 mph - N/A Fog Fog
11:22 PM 60.8 °F 57.2 °F 88% 29.92 in 5.0 mi ENE 19.6 mph - N/A Fog Fog